Content
SEND FEEDBACK

Daily
Averages
Monthly
Summary
United States of America

BUTLER, GEORGIA


Home > North America > United States > Georgia
Elevation: 65 feet     Latitude: 32 33N     Longitude: 084 14W

WEATHER
 
SELECT A DAY
Number of Records: 336,172;   Date Range: 10/4/00 - 7/29/14
 
SHARE

PRINT THIS DATA

[ ← Previous Day ]
WEATHER ALMANAC - JANUARY 23, 2013
[ Next Day → ]
[ °C ]   °F
Weather ElementAverageHighLow
Temperature43.5 °F55.4 °F (2:55 pm)30.2 °F (7:15 am)
Dewpoint31 °F41 °F (8:15 pm)23 °F (12:35 am)
Humidity62.1 %80 % (7:55 am)47 % (1:35 pm)
Barometer30.31 in30.41 in (9:55 am)30.22 in (11:35 pm)
Wind Speed5.8 mph13.8 mph (3:55 pm)
Wind Gust19.6 mph (2:35 pm)
Weather ElementAverage
Visibility10 mi
Wind DirectionSSW (207.9 °)

Weather ElementTotal
Precipitation---
Heating Degree Days22.2 (Base 65)
Averaged from 71 records on January 23, 2013
WEATHER CONDITIONS BREAKOUT
WIND DIRECTION BREAKOUT
WEATHER BY HOUR - JANUARY 23, 2013
[ °C ]   °F
Local TimeTemperatureDewpointHumidityBarometerVisibilityWind DirectionWind SpeedGust SpeedPrecipitationEventsConditions
12:35 AM35.6 °F23.0 °F60 %30.32 in10.0 miNNW (330°)3.5 mphClear
12:55 AM35.6 °F23.0 °F60 %30.31 in10.0 miNorth (350°)4.6 mphClear
1:15 AM33.8 °F23.0 °F65 %30.32 in10.0 miNorth (360°)4.6 mphClear
1:35 AM33.8 °F23.0 °F65 %30.33 in10.0 miNorth (360°)4.6 mphClear
1:55 AM33.8 °F23.0 °F65 %30.33 in10.0 miNorth (360°)5.8 mphClear
2:15 AM33.8 °F23.0 °F65 %30.33 in10.0 miNorth (350°)4.6 mphClear
2:35 AM33.8 °F23.0 °F65 %30.33 in10.0 miNorth (360°)3.5 mphClear
2:55 AM32.0 °F23.0 °F69 %30.33 in10.0 miNorth (360°)5.8 mphClear
3:15 AM32.0 °F23.0 °F69 %30.33 in10.0 miNorth (360°)5.8 mphClear
3:35 AM32.0 °F23.0 °F69 %30.33 in10.0 miNorth (360°)3.5 mphClear
3:55 AM32.0 °F23.0 °F69 %30.33 in10.0 miCalmScattered Clouds
4:15 AM32.0 °F23.0 °F69 %30.33 in10.0 miCalmMostly Cloudy
4:35 AM32.0 °F23.0 °F69 %30.33 in10.0 miCalmOvercast
4:55 AM32.0 °F23.0 °F69 %30.33 in10.0 miNNW (330°)3.5 mphMostly Cloudy
5:15 AM32.0 °F23.0 °F69 %30.33 in10.0 miCalmOvercast
5:35 AM32.0 °F23.0 °F69 %30.34 in10.0 miCalmOvercast
5:55 AM32.0 °F23.0 °F69 %30.34 in10.0 miCalmOvercast
6:15 AM32.0 °F23.0 °F69 %30.35 in10.0 miCalmOvercast
6:35 AM32.0 °F23.0 °F69 %30.36 in10.0 miNNE (30°)3.5 mphMostly Cloudy
6:55 AM32.0 °F23.0 °F69 %30.36 in10.0 miCalmMostly Cloudy
7:15 AM30.2 °F23.0 °F75 %30.37 in10.0 miCalmScattered Clouds
7:35 AM30.2 °F23.0 °F75 %30.37 in10.0 miCalmMostly Cloudy
7:55 AM30.2 °F24.8 °F80 %30.37 in10.0 miNE (40°)3.5 mphOvercast
8:15 AM32.0 °F23.0 °F69 %30.37 in10.0 miNE (50°)3.5 mphOvercast
8:35 AM32.0 °F23.0 °F69 %30.38 in10.0 miCalmOvercast
8:55 AM33.8 °F23.0 °F65 %30.39 in10.0 miCalmOvercast
9:15 AM33.8 °F23.0 °F65 %30.40 in10.0 miNNW (340°)3.5 mphOvercast
9:35 AM35.6 °F23.0 °F60 %30.40 in10.0 miCalmOvercast
9:55 AM37.4 °F24.8 °F60 %30.41 in10.0 miCalmOvercast
10:15 AM39.2 °F24.8 °F56 %30.41 in10.0 miCalmOvercast
10:35 AM41.0 °F24.8 °F53 %30.41 in10.0 miCalmOvercast
10:55 AM42.8 °F26.6 °F53 %30.41 in10.0 miCalmMostly Cloudy
11:15 AM44.6 °F28.4 °F53 %30.40 in10.0 miWSW (250°)3.5 mphScattered Clouds
11:35 AM46.4 °F28.4 °F50 %30.39 in10.0 miWSW (250°)6.9 mphClear
11:55 AM44.6 °F28.4 °F53 %30.38 in10.0 miWest (260°)8.1 mphScattered Clouds
12:15 PM46.4 °F28.4 °F50 %30.38 in10.0 miWest (260°)5.8 mphMostly Cloudy
12:35 PM48.2 °F32.0 °F54 %30.36 in10.0 miNW (310°)11.5 mphOvercast
12:55 PM48.2 °F32.0 °F54 %30.34 in10.0 miWNW (290°)8.1 mphOvercast
1:15 PM50.0 °F32.0 °F50 %30.33 in10.0 miWest (280°)11.5 mphOvercast
1:35 PM51.8 °F32.0 °F47 %30.31 in10.0 miWest (280°)11.5 mph18.4 mphMostly Cloudy
1:55 PM51.8 °F33.8 °F50 %30.30 in10.0 miWest (270°)9.2 mph17.3 mphScattered Clouds
2:15 PM53.6 °F35.6 °F51 %30.29 in10.0 miWNW (300°)12.7 mph18.4 mphClear
2:35 PM53.6 °F35.6 °F51 %30.28 in10.0 miWest (280°)9.2 mph19.6 mphClear
2:55 PM55.4 °F37.4 °F51 %30.27 in10.0 miWNW (290°)12.7 mphClear
3:15 PM55.4 °F37.4 °F51 %30.26 in10.0 miWest (270°)12.7 mph16.1 mphClear
3:35 PM55.4 °F37.4 °F51 %30.26 in10.0 miWNW (290°)12.7 mphClear
3:55 PM55.4 °F39.2 °F54 %30.26 in10.0 miWNW (290°)13.8 mph19.6 mphClear
4:15 PM55.4 °F39.2 °F54 %30.25 in10.0 miWest (270°)13.8 mph18.4 mphClear
4:35 PM55.4 °F39.2 °F54 %30.25 in10.0 miWNW (290°)11.5 mphClear
4:55 PM55.4 °F39.2 °F54 %30.25 in10.0 miWest (280°)8.1 mphClear
5:15 PM55.4 °F39.2 °F54 %30.25 in10.0 miWest (280°)6.9 mphClear
5:35 PM53.6 °F39.2 °F58 %30.25 in10.0 miWest (280°)5.8 mphClear
5:55 PM53.6 °F39.2 °F58 %30.24 in10.0 miWSW (250°)5.8 mphClear
6:15 PM51.8 °F39.2 °F62 %30.24 in10.0 miSW (230°)5.8 mphClear
6:35 PM51.8 °F37.4 °F58 %30.24 in10.0 miWSW (240°)6.9 mphClear
6:55 PM51.8 °F37.4 °F58 %30.24 in10.0 miWSW (250°)4.6 mphScattered Clouds
7:15 PM51.8 °F39.2 °F62 %30.26 in10.0 miWest (260°)5.8 mphScattered Clouds
7:35 PM51.8 °F39.2 °F62 %30.25 in10.0 miWest (260°)8.1 mphMostly Cloudy
7:55 PM51.8 °F39.2 °F62 %30.24 in10.0 miWSW (250°)6.9 mphOvercast
8:15 PM51.8 °F41.0 °F67 %30.24 in10.0 miWest (260°)9.2 mphOvercast
8:35 PM51.8 °F41.0 °F67 %30.23 in10.0 miWSW (250°)9.2 mphOvercast
8:55 PM51.8 °F41.0 °F67 %30.23 in10.0 miWest (260°)10.4 mphOvercast
9:15 PM51.8 °F41.0 °F67 %30.23 in10.0 miWest (260°)10.4 mphOvercast
9:35 PM51.8 °F41.0 °F67 %30.23 in10.0 miWSW (250°)10.4 mphOvercast
9:55 PM51.8 °F41.0 °F67 %30.23 in10.0 miWest (260°)11.5 mph16.1 mphOvercast
10:15 PM50.0 °F41.0 °F71 %30.23 in10.0 miWSW (250°)10.4 mphMostly Cloudy
10:35 PM50.0 °F41.0 °F71 %30.23 in10.0 miWest (260°)8.1 mphScattered Clouds
10:55 PM50.0 °F41.0 °F71 %30.23 in10.0 miWest (260°)8.1 mphOvercast
11:15 PM50.0 °F41.0 °F71 %30.23 in10.0 miWest (270°)6.9 mphOvercast
11:35 PM50.0 °F41.0 °F71 %30.22 in10.0 miWest (260°)5.8 mphOvercast
11:55 PM51.8 °F41.0 °F67 %30.22 in10.0 miWest (270°)6.9 mphOvercast
Hourly data recorded from KOPN, located miles away from Butler, Georgia







STORIES FROM OUR PARTNERS